Weather History for Lancaster, OH

Change the Weather History Date:

Friday, May 4, 2012

  Actual Average Record
Temperature  
Mean Temperature 70 °F -  
Max Temperature 80 °F 66 °F 88 °F (1938)
Min Temperature 60 °F 41 °F 26 °F (2005)
Cooling Degree Days 5    
Growing Degree Days 20 (Base 50)    
Moisture  
Dew Point 64 °F    
Average Humidity 84    
Maximum Humidity 96    
Minimum Humidity 62    
Precipitation  
Precipitation 0.58 in - - ()
Sea Level Pressure  
Sea Level Pressure 29.98 in    
Wind  
Wind Speed 4 mph (SSW)    
Max Wind Speed 16 mph    
Max Gust Speed 18 mph    
Visibility 7 miles    
Events Rain , Thunderstorm    
Averages and records for this station are not official NWS values.
T = Trace of Precipitation, MM = Missing Value Source: NWS Daily Summary

Daily Weather History Graph

Daily Weather History Graph

Search for Another Location

Airport:

Trip Planner

Search our weather history database for the weather conditions in past years. The results will help you decide how hot, cold, wet, or windy it might be!

Date:

Astronomy

May. 04, 2012 Rise Set
Actual Time 6:26 AM EDT 8:28 PM EDT
Civil Twilight 5:57 AM EDT 8:57 PM EDT
Nautical Twilight 5:21 AM EDT 9:34 PM EDT
Astronomical Twilight 4:42 AM EDT 10:13 PM EDT
Moon 7:05 PM EDT (5/4) 5:06 AM EDT (5/4)
Length of Visible Light 15h 00m
Length of Day
14h 01m
Waxing Gibbous, 97% of the Moon is Illuminated
May 4
Waxing Gibbous
May 5
Full
May 12
Last Quarter
May 20
New
May 28
First Quarter

Hourly Weather History & Observations

Time (EDT) Temp. Heat Index Dew Point Humidity Pressure Visibility Wind Dir Wind Speed Gust Speed Precip Events Conditions
12:53 AM 64.0 °F - 62.1 °F 93% 30.01 in 9.0 mi Calm Calm - N/A   Clear
1:53 AM 63.0 °F - 61.0 °F 93% 30.00 in 7.0 mi Calm Calm - N/A   Clear
2:53 AM 62.1 °F - 60.1 °F 93% 29.99 in 7.0 mi Calm Calm - 0.01 in   Clear
3:53 AM 62.1 °F - 60.1 °F 93% 29.99 in 4.0 mi Calm Calm - N/A   Clear
4:53 AM 61.0 °F - 59.0 °F 93% 29.99 in 5.0 mi Calm Calm - N/A   Clear
5:53 AM 60.1 °F - 59.0 °F 96% 30.01 in 6.0 mi SSE 3.5 mph - N/A   Clear
6:53 AM 64.0 °F - 62.1 °F 93% 30.03 in 6.0 mi SE 9.2 mph - N/A   Partly Cloudy
7:13 AM 66.2 °F - 62.6 °F 88% 30.05 in 7.0 mi SE 6.9 mph - N/A   Mostly Cloudy
7:53 AM 66.9 °F - 64.0 °F 90% 30.04 in 8.0 mi SSE 5.8 mph - N/A   Overcast
8:03 AM 66.2 °F - 64.4 °F 94% 30.05 in 8.0 mi SE 4.6 mph - N/A   Overcast
8:33 AM 66.2 °F - 64.4 °F 94% 30.05 in 9.0 mi Calm Calm - N/A   Overcast
8:42 AM 68.0 °F - 64.4 °F 88% 30.05 in 9.0 mi Calm Calm - N/A   Overcast
9:53 AM 72.0 °F - 64.0 °F 76% 30.02 in 10.0 mi South 8.1 mph - N/A   Mostly Cloudy
10:00 AM 71.6 °F - 64.4 °F 78% 30.03 in 10.0 mi SSW 6.9 mph - N/A   Mostly Cloudy
10:13 AM 71.6 °F - 64.4 °F 78% 30.03 in 10.0 mi South 6.9 mph - N/A   Mostly Cloudy
10:53 AM 72.0 °F - 64.9 °F 78% 30.01 in 10.0 mi SSW 9.2 mph - N/A   Mostly Cloudy
11:53 AM 73.9 °F - 66.0 °F 76% 30.01 in 10.0 mi South 6.9 mph 16.1 mph N/A   Mostly Cloudy
12:53 PM 75.9 °F - 66.0 °F 71% 30.00 in 10.0 mi SW 10.4 mph - N/A   Mostly Cloudy
1:04 PM 75.2 °F - 66.2 °F 73% 30.01 in 10.0 mi SW 10.4 mph - N/A   Mostly Cloudy
1:53 PM 75.0 °F - 64.9 °F 71% 29.98 in 10.0 mi WSW 9.2 mph - N/A   Scattered Clouds
2:53 PM 77.0 °F - 66.0 °F 69% 29.96 in 10.0 mi SW 9.2 mph - N/A   Scattered Clouds
3:53 PM 79.0 °F - 66.9 °F 66% 29.93 in 10.0 mi SW 10.4 mph - N/A   Mostly Cloudy
4:53 PM 80.1 °F 82.1 °F 66.0 °F 62% 29.91 in 10.0 mi Variable 6.9 mph - N/A   Partly Cloudy
5:53 PM 78.1 °F - 64.9 °F 64% 29.91 in 10.0 mi SW 5.8 mph - N/A   Scattered Clouds
6:53 PM 77.0 °F - 64.0 °F 64% 29.90 in 10.0 mi South 3.5 mph - N/A   Mostly Cloudy
7:06 PM 75.2 °F - 64.4 °F 69% 29.91 in 10.0 mi WSW 3.5 mph - N/A Thunderstorm Thunderstorm
7:53 PM 73.0 °F - 64.9 °F 76% 29.91 in 9.0 mi NE 4.6 mph - 0.01 in Rain , Thunderstorm Light Rain
8:36 PM 69.8 °F - 66.2 °F 88% 29.95 in 3.0 mi NNW 9.2 mph - 0.12 in Rain , Thunderstorm Thunderstorms and Rain
8:39 PM 69.8 °F - 66.2 °F 88% 29.95 in 2.0 mi WNW 16.1 mph - 0.20 in Rain , Thunderstorm Thunderstorms and Rain
8:42 PM 69.8 °F - 66.2 °F 88% 29.95 in 1.2 mi West 11.5 mph 18.4 mph 0.28 in Rain , Thunderstorm Heavy Thunderstorms and Rain
8:50 PM 66.2 °F - 64.4 °F 94% 29.95 in 1.2 mi Variable 4.6 mph 16.1 mph 0.41 in Rain , Thunderstorm Heavy Thunderstorms and Rain
8:53 PM 66.9 °F - 64.0 °F 90% 29.94 in 1.2 mi NNW 3.5 mph 16.1 mph 0.43 in Rain , Thunderstorm Heavy Thunderstorms and Rain
9:05 PM 66.2 °F - 64.4 °F 94% 29.96 in 2.0 mi Calm Calm - 0.06 in Rain , Thunderstorm Thunderstorms and Rain
9:13 PM 66.2 °F - 64.4 °F 94% 29.95 in 2.5 mi Calm Calm - 0.08 in Rain , Thunderstorm Heavy Thunderstorms and Rain
9:20 PM 66.2 °F - 64.4 °F 94% 29.95 in 4.0 mi WNW 3.5 mph - 0.10 in Rain , Thunderstorm Rain
9:42 PM 66.2 °F - 64.4 °F 94% 29.94 in 9.0 mi WNW 3.5 mph - 0.13 in   Mostly Cloudy
9:53 PM 66.9 °F - 64.0 °F 90% 29.92 in 9.0 mi Calm Calm - 0.13 in   Partly Cloudy
10:53 PM 66.0 °F - 64.0 °F 93% 29.92 in 8.0 mi Calm Calm - N/A   Overcast
11:53 PM 66.0 °F - 64.0 °F 93% 29.93 in 7.0 mi SSE 3.5 mph - N/A   Mostly Cloudy